Location: Darlington Observatory
(36.4817°N, 105.8156°W)
Time: 09:58:53
(UTC-06:00)

MOS 1 - Visible Passes

Search period start: 20 September 2014 00:00
Search period end: 30 September 2014 00:00
Orbit: 879 x 892 km, 99.2° (Epoch: 17 September)

Date Brightness Start Highest point End Pass type
(mag) Time Alt. Az. Time Alt. Az. Time Alt. Az.
20 Sep 7.0 04:29:05 10° ENE 04:32:13 15° E 04:35:20 10° SE visible
20 Sep 4.3 06:08:24 10° N 06:13:58 64° WNW 06:19:31 10° SSW visible
21 Sep 7.0 04:27:40 10° ENE 04:30:39 14° E 04:33:37 10° SE visible
21 Sep 4.3 06:06:50 10° N 06:12:26 66° WNW 06:17:59 10° SSW visible
22 Sep 7.1 04:26:17 10° ENE 04:29:05 14° E 04:31:52 10° ESE visible
22 Sep 4.3 06:05:17 10° N 06:10:53 68° WNW 06:16:28 10° SSW visible
23 Sep 7.1 04:24:53 10° ENE 04:27:31 13° E 04:30:07 10° ESE visible
23 Sep 4.3 06:03:43 10° N 06:09:20 71° WNW 06:14:56 10° SSW visible
24 Sep 7.1 04:23:31 10° ENE 04:25:57 13° E 04:28:21 10° ESE visible
24 Sep 4.2 06:02:10 10° N 06:07:48 73° WNW 06:13:24 10° SSW visible
25 Sep 7.1 04:22:11 10° ENE 04:24:23 12° E 04:26:34 10° ESE visible
25 Sep 4.2 06:00:37 10° N 06:06:15 76° WNW 06:11:51 10° SSW visible
26 Sep 7.2 04:20:52 10° ENE 04:22:48 12° E 04:24:44 10° ESE visible
26 Sep 4.2 05:59:03 10° N 06:04:42 78° WNW 06:10:19 10° SSW visible
27 Sep 7.2 04:19:36 10° ENE 04:21:14 11° E 04:22:52 10° ESE visible
27 Sep 4.2 05:57:30 10° NNE 06:03:10 81° WNW 06:08:47 10° SSW visible
28 Sep 7.3 04:18:25 10° ENE 04:19:40 11° E 04:20:55 10° ESE visible
28 Sep 4.2 05:55:57 10° NNE 06:01:37 84° WNW 06:07:15 10° SSW visible
29 Sep 7.3 04:17:26 10° E 04:18:06 10° E 04:18:45 10° E visible
29 Sep 4.3 05:54:24 10° NNE 06:00:04 86° WNW 06:05:42 10° SSW visible
